CES5528 ZSYT-ZSPD

Flight info

Callsign CES5528
Flight time N/A
Altitude 26600
Route HCH W5 TAO DCT URBAD W172 LATUX W108 MATNU W115 PINOT
Aircraft A320/M-SDE3FGHIRWY/LB1

Departure

Time 2026-04-21 07:56
Airport Yantai Penglai International Airport (ZSYT)

Arrival

Time N/A
Airport Shanghai Pudong International Airport (ZSPD)
Time Latitude Longitude Altitude Speed Heading
2026-04-21 07:01 37.65229 120.97895 161 ft 0 kts 220°
2026-04-21 07:46 37.65232 120.97899 161 ft 2 kts 220°
2026-04-21 07:47 37.65244 120.97911 161 ft 2 kts 221°
2026-04-21 07:47 37.65251 120.97920 161 ft 2 kts 220°
2026-04-21 07:47 37.65265 120.97928 161 ft 2 kts 186°
2026-04-21 07:47 37.65281 120.97926 161 ft 2 kts 158°
2026-04-21 07:48 37.65291 120.97918 161 ft 0 kts 135°
2026-04-21 07:48 37.65296 120.97911 161 ft 1 kts 131°
2026-04-21 07:48 37.65296 120.97910 161 ft 0 kts 131°
2026-04-21 07:50 37.65291 120.97918 161 ft 1 kts 131°
2026-04-21 07:50 37.65279 120.97935 161 ft 3 kts 126°
2026-04-21 07:50 37.65271 120.97968 161 ft 4 kts 84°
2026-04-21 07:50 37.65294 120.98004 161 ft 6 kts 39°
2026-04-21 07:51 37.65337 120.98009 161 ft 7 kts 318°
2026-04-21 07:51 37.65375 120.97958 161 ft 8 kts 312°
2026-04-21 07:51 37.65416 120.97899 161 ft 9 kts 311°
2026-04-21 07:51 37.65463 120.97832 161 ft 10 kts 311°
2026-04-21 07:52 37.65517 120.97761 161 ft 11 kts 329°
2026-04-21 07:52 37.65590 120.97791 161 ft 12 kts 40°
2026-04-21 07:52 37.65656 120.97865 161 ft 13 kts 42°
2026-04-21 07:52 37.65816 120.98052 161 ft 14 kts 42°
2026-04-21 07:53 37.66289 120.98589 161 ft 14 kts 45°
2026-04-21 07:53 37.66524 120.98861 161 ft 15 kts 42°
2026-04-21 07:53 37.66602 120.98938 161 ft 14 kts 17°
2026-04-21 07:53 37.66692 120.98937 161 ft 12 kts 23°
2026-04-21 07:54 37.66760 120.99011 161 ft 13 kts 42°
2026-04-21 07:54 37.66997 120.99270 161 ft 13 kts 17°
2026-04-21 07:54 37.67048 120.99235 161 ft 7 kts 311°
2026-04-21 07:54 37.67084 120.99182 161 ft 8 kts 307°
2026-04-21 07:55 37.67091 120.99110 161 ft 9 kts 232°
2026-04-21 07:55 37.67079 120.99096 161 ft 0 kts 221°
2026-04-21 07:55 37.66965 120.98967 161 ft 55 kts 222°
2026-04-21 07:55 37.66505 120.98444 161 ft 118 kts 223°
2026-04-21 07:56 37.65768 120.97594 252 ft 160 kts 224°
2026-04-21 07:56 37.65006 120.96658 927 ft 154 kts 225°
2026-04-21 07:56 37.64241 120.95718 1645 ft 152 kts 225°
2026-04-21 07:56 37.63508 120.94806 2266 ft 150 kts 224°
2026-04-21 07:57 37.62761 120.93910 2835 ft 148 kts 223°
2026-04-21 07:57 37.61947 120.93010 3162 ft 163 kts 222°
2026-04-21 07:57 37.61051 120.92016 3492 ft 180 kts 223°
2026-04-21 07:57 37.60075 120.90907 3825 ft 197 kts 223°
2026-04-21 07:58 37.58997 120.89670 4106 ft 220 kts 223°
2026-04-21 07:58 37.57819 120.88306 4537 ft 238 kts 224°
2026-04-21 07:58 37.56569 120.86855 5044 ft 252 kts 224°
2026-04-21 07:58 37.55233 120.85357 5764 ft 258 kts 217°
2026-04-21 07:59 37.53554 120.84565 6405 ft 268 kts 185°
2026-04-21 07:59 37.52091 120.84843 6717 ft 275 kts 161°
2026-04-21 07:59 37.50495 120.86203 6987 ft 283 kts 133°
2026-04-21 07:59 37.49560 120.88411 7415 ft 296 kts 104°
2026-04-21 08:00 37.49211 120.90959 8316 ft 296 kts 99°
2026-04-21 08:00 37.48867 120.93512 9145 ft 297 kts 99°
2026-04-21 08:00 37.48498 120.96085 9891 ft 301 kts 99°
2026-04-21 08:00 37.48112 120.98683 10615 ft 305 kts 100°
2026-04-21 08:01 37.47713 121.01323 11318 ft 309 kts 100°
2026-04-21 08:01 37.47310 121.03966 11992 ft 314 kts 100°
2026-04-21 08:01 37.46896 121.06658 12669 ft 317 kts 99°
2026-04-21 08:02 37.46044 121.12160 13932 ft 327 kts 100°
2026-04-21 08:02 37.45603 121.15005 14575 ft 330 kts 99°
2026-04-21 08:02 37.45119 121.17848 15154 ft 335 kts 103°
2026-04-21 08:02 37.44472 121.20686 15600 ft 345 kts 106°
2026-04-21 08:03 37.43735 121.23629 15874 ft 360 kts 106°
2026-04-21 08:03 37.42956 121.26701 16135 ft 375 kts 106°
2026-04-21 08:03 37.42139 121.29919 16390 ft 389 kts 106°
2026-04-21 08:03 37.41318 121.33171 16632 ft 402 kts 107°
2026-04-21 08:04 37.40450 121.36610 16853 ft 414 kts 106°
2026-04-21 08:04 37.39574 121.40079 17225 ft 421 kts 106°
2026-04-21 08:04 37.38692 121.43574 17700 ft 424 kts 106°
2026-04-21 08:04 37.37787 121.47155 18162 ft 429 kts 106°
2026-04-21 08:05 37.36881 121.50736 18568 ft 433 kts 106°
2026-04-21 08:05 37.35969 121.54351 18980 ft 437 kts 107°
2026-04-21 08:05 37.35036 121.58025 19343 ft 442 kts 107°
2026-04-21 08:05 37.34089 121.61756 19704 ft 447 kts 107°
2026-04-21 08:06 37.33137 121.65491 20108 ft 451 kts 108°
2026-04-21 08:06 37.32183 121.69237 20492 ft 454 kts 109°
2026-04-21 08:06 37.31214 121.73032 20830 ft 458 kts 109°
2026-04-21 08:06 37.30230 121.76872 21157 ft 463 kts 109°
2026-04-21 08:07 37.29232 121.80756 21496 ft 467 kts 109°
2026-04-21 08:07 37.28222 121.84682 21825 ft 471 kts 110°
2026-04-21 08:07 37.27210 121.88625 22159 ft 475 kts 110°
2026-04-21 08:07 37.26199 121.92555 22473 ft 479 kts 110°
2026-04-21 08:08 37.25164 121.96561 22760 ft 483 kts 111°
2026-04-21 08:08 37.24124 122.00576 23072 ft 487 kts 111°
2026-04-21 08:08 37.23077 122.04614 23387 ft 490 kts 111°
2026-04-21 08:08 37.22024 122.08666 23754 ft 493 kts 111°
2026-04-21 08:09 37.20951 122.12802 24065 ft 496 kts 111°
2026-04-21 08:09 37.19880 122.16904 24367 ft 499 kts 112°
2026-04-21 08:09 37.18477 122.20912 24619 ft 497 kts 125°
2026-04-21 08:09 37.16421 122.24314 24960 ft 487 kts 140°
2026-04-21 08:10 37.13828 122.27070 25359 ft 477 kts 151°
2026-04-21 08:10 37.11124 122.29501 25711 ft 479 kts 150°
2026-04-21 08:10 37.08662 122.32355 25867 ft 498 kts 135°
2026-04-21 08:10 37.06770 122.36124 26167 ft 512 kts 118°
2026-04-21 08:11 37.05583 122.40356 26554 ft 518 kts 110°
2026-04-21 08:11 37.04594 122.44717 26663 ft 522 kts 108°
2026-04-21 08:11 37.03632 122.49116 26659 ft 521 kts 108°
2026-04-21 08:11 37.02663 122.53501 26668 ft 520 kts 108°
2026-04-21 08:12 37.01674 122.57848 26678 ft 520 kts 108°
2026-04-21 08:12 37.00670 122.62188 26670 ft 520 kts 109°
2026-04-21 08:12 36.99646 122.66559 26675 ft 521 kts 109°
2026-04-21 08:12 36.98622 122.70891 26673 ft 521 kts 110°
2026-04-21 08:13 36.97592 122.75231 26676 ft 521 kts 109°
2026-04-21 08:13 36.96563 122.79574 26678 ft 520 kts 110°
2026-04-21 08:13 36.95532 122.83905 26678 ft 520 kts 110°
2026-04-21 08:13 36.94496 122.88245 26672 ft 520 kts 110°
2026-04-21 08:14 36.93447 122.92624 26677 ft 521 kts 109°
2026-04-21 08:14 36.92415 122.96948 26676 ft 521 kts 110°
2026-04-21 08:14 36.91377 123.01283 26676 ft 520 kts 109°
2026-04-21 08:14 36.90336 123.05624 26683 ft 521 kts 110°
2026-04-21 08:15 36.89301 123.09943 26686 ft 521 kts 110°
2026-04-21 08:15 36.88244 123.14320 26673 ft 522 kts 110°
2026-04-21 08:15 36.87201 123.18643 26682 ft 522 kts 110°
2026-04-21 08:15 36.86142 123.23021 26682 ft 522 kts 110°
2026-04-21 08:16 36.85062 123.27337 26675 ft 519 kts 114°
2026-04-21 08:16 36.83364 123.31250 26665 ft 506 kts 134°
2026-04-21 08:16 36.80852 123.34171 26661 ft 487 kts 155°